Location: Cluj-Napoca
(46.7712°N, 23.6236°E)
Time: 07:50:31
(UTC+02:00)

ISS - Pass Details

Date: 23 January 2021
Orbit: 418 x 421 km, 51.6° (Epoch: 23 January)

Event Time Altitude Azimuth Distance (km) Brightness Sun altitude
Rises 18:55:39 0° 254° (WSW) 2,365 1.8 -17.0°
Reaches altitude 10° 18:57:46 10° 258° (WSW) 1,503 0.4 -17.3°
Maximum altitude 19:01:06 60° 339° (NNW) 490 -3.5 -17.9°
Enters shadow 19:01:48 46° 31° (NNE) 574 -3.4 -18.0°
